Time,TemperatureF,DewpointF,PressureIn,WindDirection,WindDirectionDegrees,WindSpeedMPH,WindSpeedGustMPH,Humidity,HourlyPrecipIn,Conditions,Clouds,dailyrainin,SoftwareType,DateUTC
2013-07-11 00:00:00,76.9,73.4,30.01,SW,220,0.0,0.0,89,0.00,,---,0.00,VWS V14.00,2013-07-11 04:00:00,
2013-07-11 00:01:00,76.9,73.4,30.01,SW,220,0.0,0.0,89,0.00,,---,0.00,VWS V14.00,2013-07-11 04:01:00,
2013-07-11 00:06:00,76.9,73.8,30.01,SW,220,0.0,0.0,90,0.00,,---,0.00,VWS V14.00,2013-07-11 04:06:00,
2013-07-11 00:11:00,76.8,73.7,30.00,SW,220,0.0,0.0,90,0.00,,---,0.00,VWS V14.00,2013-07-11 04:11:00,
2013-07-11 00:16:00,76.8,73.7,30.00,SW,220,0.0,0.0,90,0.00,,---,0.00,VWS V14.00,2013-07-11 04:16:00,
2013-07-11 00:21:00,76.8,73.7,30.00,SW,220,0.0,0.0,90,0.00,,---,0.00,VWS V14.00,2013-07-11 04:21:00,
2013-07-11 00:26:00,76.8,74.0,30.00,SW,220,0.0,0.0,91,0.00,,---,0.00,VWS V14.00,2013-07-11 04:26:00,
2013-07-11 00:31:00,76.9,74.1,30.00,SW,220,0.0,0.0,91,0.00,,---,0.00,VWS V14.00,2013-07-11 04:31:00,
2013-07-11 00:36:00,76.9,74.4,30.00,SW,220,0.0,0.0,92,0.00,,---,0.00,VWS V14.00,2013-07-11 04:36:00,
2013-07-11 00:41:00,76.9,74.4,30.00,SW,220,0.0,0.0,92,0.00,,---,0.00,VWS V14.00,2013-07-11 04:41:00,
2013-07-11 00:46:00,76.9,74.4,30.00,SW,220,0.0,0.0,92,0.00,,---,0.00,VWS V14.00,2013-07-11 04:46:00,
2013-07-11 00:51:00,76.9,74.4,30.00,SW,220,0.0,0.0,92,0.00,,---,0.00,VWS V14.00,2013-07-11 04:51:00,
2013-07-11 00:56:00,76.9,74.4,30.00,SW,220,0.0,0.0,92,0.00,,---,0.00,VWS V14.00,2013-07-11 04:56:00,
2013-07-11 01:01:00,76.9,74.4,30.00,SW,220,0.0,0.0,92,0.00,,---,0.00,VWS V14.00,2013-07-11 05:01:00,
2013-07-11 01:06:00,76.9,74.4,29.99,SW,220,0.0,0.0,92,0.00,,---,0.00,VWS V14.00,2013-07-11 05:06:00,
2013-07-11 01:11:00,76.9,74.4,29.99,SW,220,0.0,0.0,92,0.00,,---,0.00,VWS V14.00,2013-07-11 05:11:00,
2013-07-11 01:16:00,76.9,74.4,29.99,SW,220,0.0,0.0,92,0.00,,---,0.00,VWS V14.00,2013-07-11 05:16:00,
2013-07-11 01:21:00,76.9,74.4,29.99,SW,220,0.0,0.0,92,0.00,,---,0.00,VWS V14.00,2013-07-11 05:21:00,
2013-07-11 01:26:00,76.9,74.4,29.99,SW,220,0.0,0.0,92,0.00,,---,0.00,VWS V14.00,2013-07-11 05:26:00,
2013-07-11 01:31:00,77.0,74.2,29.99,SW,220,0.0,0.0,91,0.00,,---,0.00,VWS V14.00,2013-07-11 05:31:00,
2013-07-11 01:36:00,77.0,74.5,29.99,SW,220,0.0,0.0,92,0.00,,---,0.00,VWS V14.00,2013-07-11 05:36:00,
2013-07-11 01:41:00,77.0,74.2,29.99,WSW,238,0.0,1.0,91,0.00,,---,0.00,VWS V14.00,2013-07-11 05:41:00,
2013-07-11 01:46:00,77.1,74.3,29.99,WSW,238,0.0,0.0,91,0.00,,---,0.00,VWS V14.00,2013-07-11 05:46:00,
2013-07-11 01:51:00,77.1,74.3,29.99,WSW,238,0.0,0.0,91,0.00,,---,0.00,VWS V14.00,2013-07-11 05:51:00,
2013-07-11 01:56:00,77.1,74.3,29.99,WSW,238,0.0,0.0,91,0.00,,---,0.00,VWS V14.00,2013-07-11 05:56:00,
2013-07-11 02:01:00,77.1,74.3,29.99,WSW,238,0.0,0.0,91,0.00,,---,0.00,VWS V14.00,2013-07-11 06:01:00,
2013-07-11 02:06:00,77.2,74.4,29.99,WSW,238,0.0,0.0,91,0.00,,---,0.00,VWS V14.00,2013-07-11 06:06:00,
2013-07-11 02:11:00,77.2,74.4,29.99,WSW,238,0.0,0.0,91,0.00,,---,0.00,VWS V14.00,2013-07-11 06:11:00,
2013-07-11 02:16:00,77.2,74.4,29.99,WSW,238,0.0,0.0,91,0.00,,---,0.00,VWS V14.00,2013-07-11 06:16:00,
2013-07-11 02:21:00,77.2,74.4,29.99,WSW,238,0.0,0.0,91,0.00,,---,0.00,VWS V14.00,2013-07-11 06:21:00,
2013-07-11 02:26:00,77.2,74.4,29.99,WSW,238,0.0,0.0,91,0.00,,---,0.00,VWS V14.00,2013-07-11 06:26:00,
2013-07-11 02:31:00,77.2,74.0,29.99,WSW,238,0.0,0.0,90,0.00,,---,0.00,VWS V14.00,2013-07-11 06:31:00,
2013-07-11 02:36:00,77.2,74.0,29.99,WSW,238,0.0,0.0,90,0.00,,---,0.00,VWS V14.00,2013-07-11 06:36:00,
2013-07-11 02:41:00,77.1,73.9,29.99,WSW,238,0.0,0.0,90,0.00,,---,0.00,VWS V14.00,2013-07-11 06:41:00,
2013-07-11 02:46:00,77.1,73.9,29.99,WSW,238,0.0,0.0,90,0.00,,---,0.00,VWS V14.00,2013-07-11 06:46:00,
2013-07-11 02:51:00,77.1,73.9,29.99,WSW,238,0.0,0.0,90,0.00,,---,0.00,VWS V14.00,2013-07-11 06:51:00,
2013-07-11 02:56:00,77.2,74.0,29.99,WSW,238,0.0,0.0,90,0.00,,---,0.00,VWS V14.00,2013-07-11 06:56:00,
2013-07-11 03:01:00,77.1,73.9,29.99,WSW,238,0.0,0.0,90,0.00,,---,0.00,VWS V14.00,2013-07-11 07:01:00,
2013-07-11 03:06:00,77.2,74.0,29.99,WSW,238,0.0,0.0,90,0.00,,---,0.00,VWS V14.00,2013-07-11 07:06:00,
2013-07-11 03:11:00,77.1,73.9,29.99,WSW,238,0.0,0.0,90,0.00,,---,0.00,VWS V14.00,2013-07-11 07:11:00,
2013-07-11 03:16:00,77.2,74.0,29.98,WSW,240,0.0,0.0,90,0.00,,---,0.00,VWS V14.00,2013-07-11 07:16:00,
2013-07-11 03:21:00,77.2,74.0,29.98,WSW,240,0.0,0.0,90,0.00,,---,0.00,VWS V14.00,2013-07-11 07:21:00,
2013-07-11 03:26:00,77.2,74.0,29.98,WSW,240,0.0,0.0,90,0.00,,---,0.00,VWS V14.00,2013-07-11 07:26:00,
2013-07-11 03:31:00,77.1,73.9,29.98,WSW,240,0.0,0.0,90,0.00,,---,0.00,VWS V14.00,2013-07-11 07:31:00,
2013-07-11 03:36:00,77.2,74.0,29.98,WSW,240,0.0,0.0,90,0.00,,---,0.00,VWS V14.00,2013-07-11 07:36:00,
2013-07-11 03:41:00,77.1,73.9,29.98,WSW,240,0.0,0.0,90,0.00,,---,0.00,VWS V14.00,2013-07-11 07:41:00,
2013-07-11 03:46:00,77.1,73.9,29.98,WSW,240,0.0,0.0,90,0.00,,---,0.00,VWS V14.00,2013-07-11 07:46:00,
2013-07-11 03:51:00,77.1,73.9,29.97,WSW,240,0.0,0.0,90,0.00,,---,0.00,VWS V14.00,2013-07-11 07:51:00,
2013-07-11 03:55:00,77.1,73.9,29.97,WSW,240,0.0,0.0,90,0.00,,---,0.00,VWS V14.00,2013-07-11 07:55:00,
2013-07-11 04:00:00,77.1,73.9,29.97,NW,325,0.0,0.0,90,0.00,,---,0.00,VWS V14.00,2013-07-11 08:00:00,
2013-07-11 04:05:00,77.1,73.9,29.97,NW,325,0.0,0.0,90,0.00,,---,0.00,VWS V14.00,2013-07-11 08:05:00,
2013-07-11 04:10:00,77.0,73.8,29.97,NW,325,0.0,0.0,90,0.00,,---,0.00,VWS V14.00,2013-07-11 08:10:00,
2013-07-11 04:15:00,77.0,73.8,29.97,NW,325,0.0,0.0,90,0.00,,---,0.00,VWS V14.00,2013-07-11 08:15:00,
2013-07-11 04:20:00,77.0,73.8,29.97,NW,325,0.0,0.0,90,0.00,,---,0.00,VWS V14.00,2013-07-11 08:20:00,
2013-07-11 04:25:00,76.9,73.8,29.97,NW,325,0.0,0.0,90,0.00,,---,0.00,VWS V14.00,2013-07-11 08:25:00,
2013-07-11 04:30:00,76.9,73.8,29.97,NW,325,0.0,0.0,90,0.00,,---,0.00,VWS V14.00,2013-07-11 08:30:00,
2013-07-11 04:35:00,76.9,73.8,29.97,NW,325,0.0,0.0,90,0.00,,---,0.00,VWS V14.00,2013-07-11 08:35:00,
2013-07-11 04:40:00,76.9,73.8,29.97,NW,325,0.0,0.0,90,0.00,,---,0.00,VWS V14.00,2013-07-11 08:40:00,
2013-07-11 04:45:00,76.8,73.7,29.97,NW,325,0.0,0.0,90,0.00,,---,0.00,VWS V14.00,2013-07-11 08:45:00,
2013-07-11 04:50:00,76.8,73.7,29.97,NW,325,0.0,0.0,90,0.00,,---,0.00,VWS V14.00,2013-07-11 08:50:00,
2013-07-11 04:55:00,76.7,73.6,29.97,NW,325,0.0,0.0,90,0.00,,---,0.00,VWS V14.00,2013-07-11 08:55:00,
2013-07-11 05:00:00,76.7,73.6,29.97,NW,325,0.0,0.0,90,0.00,,---,0.00,VWS V14.00,2013-07-11 09:00:00,
2013-07-11 05:05:00,76.6,73.4,29.97,NW,325,0.0,0.0,90,0.00,,---,0.00,VWS V14.00,2013-07-11 09:05:00,
2013-07-11 05:10:00,76.5,73.3,29.97,NW,325,0.0,0.0,90,0.00,,---,0.00,VWS V14.00,2013-07-11 09:10:00,
2013-07-11 05:15:00,76.4,73.2,29.97,NW,325,0.0,0.0,90,0.00,,---,0.00,VWS V14.00,2013-07-11 09:15:00,
2013-07-11 05:20:00,76.4,73.2,29.97,NW,325,0.0,0.0,90,0.00,,---,0.00,VWS V14.00,2013-07-11 09:20:00,
2013-07-11 05:25:00,76.2,73.1,29.97,NW,325,0.0,0.0,90,0.00,,---,0.00,VWS V14.00,2013-07-11 09:25:00,
2013-07-11 05:30:00,76.2,73.1,29.97,NW,325,0.0,0.0,90,0.00,,---,0.00,VWS V14.00,2013-07-11 09:30:00,
2013-07-11 05:35:00,76.1,73.0,29.97,NW,325,0.0,0.0,90,0.00,,---,0.00,VWS V14.00,2013-07-11 09:35:00,
2013-07-11 05:40:00,76.0,72.9,29.97,NW,325,0.0,0.0,90,0.00,,---,0.00,VWS V14.00,2013-07-11 09:40:00,
2013-07-11 05:45:00,75.9,72.8,29.97,NW,325,0.0,0.0,90,0.00,,---,0.00,VWS V14.00,2013-07-11 09:45:00,
2013-07-11 05:50:00,75.9,72.8,29.97,NW,325,0.0,0.0,90,0.00,,---,0.00,VWS V14.00,2013-07-11 09:50:00,
2013-07-11 05:55:00,75.8,73.0,29.97,NW,325,0.0,0.0,91,0.00,,---,0.00,VWS V14.00,2013-07-11 09:55:00,
2013-07-11 06:00:00,75.7,72.9,29.97,NW,325,0.0,0.0,91,0.00,,---,0.00,VWS V14.00,2013-07-11 10:00:00,
2013-07-11 06:05:00,75.6,72.8,29.97,NW,325,0.0,0.0,91,0.00,,---,0.00,VWS V14.00,2013-07-11 10:05:00,
2013-07-11 06:10:00,75.6,72.8,29.97,NW,325,0.0,0.0,91,0.00,,---,0.00,VWS V14.00,2013-07-11 10:10:00,
2013-07-11 06:15:00,75.5,72.7,29.97,NW,325,0.0,0.0,91,0.00,,---,0.00,VWS V14.00,2013-07-11 10:15:00,
2013-07-11 06:20:00,75.5,72.7,29.97,NW,325,0.0,0.0,91,0.00,,---,0.00,VWS V14.00,2013-07-11 10:20:00,
2013-07-11 06:25:00,75.4,72.6,29.97,NW,325,0.0,0.0,91,0.00,,---,0.00,VWS V14.00,2013-07-11 10:25:00,
2013-07-11 06:30:00,75.3,72.5,29.98,NW,325,0.0,0.0,91,0.00,,---,0.00,VWS V14.00,2013-07-11 10:30:00,
2013-07-11 06:35:00,75.3,72.8,29.98,NW,325,0.0,0.0,92,0.00,,---,0.00,VWS V14.00,2013-07-11 10:35:00,
2013-07-11 06:40:00,75.3,72.8,29.98,NW,325,0.0,0.0,92,0.00,,---,0.00,VWS V14.00,2013-07-11 10:40:00,
2013-07-11 06:45:00,75.3,72.8,29.97,NW,325,0.0,0.0,92,0.00,,---,0.00,VWS V14.00,2013-07-11 10:45:00,
2013-07-11 06:50:00,75.3,72.8,29.97,NW,325,0.0,0.0,92,0.00,,---,0.00,VWS V14.00,2013-07-11 10:50:00,
2013-07-11 06:55:00,75.3,72.8,29.98,NW,325,0.0,0.0,92,0.00,,---,0.00,VWS V14.00,2013-07-11 10:55:00,
2013-07-11 07:00:00,75.3,73.1,29.98,NW,325,0.0,1.0,93,0.00,,---,0.00,VWS V14.00,2013-07-11 11:00:00,
2013-07-11 07:05:00,75.4,73.2,29.98,NW,325,0.0,0.0,93,0.00,,---,0.00,VWS V14.00,2013-07-11 11:05:00,
2013-07-11 07:10:00,75.5,73.3,29.98,NW,325,0.0,0.0,93,0.00,,---,0.00,VWS V14.00,2013-07-11 11:10:00,
2013-07-11 07:15:00,75.5,73.3,29.97,NW,325,0.0,0.0,93,0.00,,---,0.00,VWS V14.00,2013-07-11 11:15:00,
2013-07-11 07:20:00,75.5,73.3,29.97,NW,325,0.0,0.0,93,0.00,,---,0.00,VWS V14.00,2013-07-11 11:20:00,
2013-07-11 07:25:00,75.6,73.8,29.97,NW,325,0.0,0.0,94,0.00,,---,0.00,VWS V14.00,2013-07-11 11:25:00,
2013-07-11 07:30:00,75.7,73.8,29.97,NW,325,0.0,0.0,94,0.00,,---,0.00,VWS V14.00,2013-07-11 11:30:00,
2013-07-11 07:35:00,75.8,73.9,29.98,NW,325,0.0,0.0,94,0.00,,---,0.00,VWS V14.00,2013-07-11 11:35:00,
2013-07-11 07:40:00,75.8,73.9,29.98,NW,325,0.0,0.0,94,0.00,,---,0.00,VWS V14.00,2013-07-11 11:40:00,
2013-07-11 07:45:00,75.9,74.1,29.98,NW,325,0.0,0.0,94,0.00,,---,0.00,VWS V14.00,2013-07-11 11:45:00,
2013-07-11 07:50:00,76.0,74.2,29.98,NW,325,0.0,0.0,94,0.00,,---,0.00,VWS V14.00,2013-07-11 11:50:00,
2013-07-11 07:55:00,76.2,74.3,29.98,NW,325,0.0,0.0,94,0.00,,---,0.00,VWS V14.00,2013-07-11 11:55:00,
2013-07-11 08:00:00,76.4,74.6,29.98,NW,324,0.0,0.0,94,0.00,,---,0.00,VWS V14.00,2013-07-11 12:00:00,
2013-07-11 08:05:00,76.6,74.8,29.98,NW,324,0.0,0.0,94,0.00,,---,0.00,VWS V14.00,2013-07-11 12:05:00,
2013-07-11 08:10:00,76.7,74.8,29.98,NW,324,0.0,0.0,94,0.00,,---,0.00,VWS V14.00,2013-07-11 12:10:00,
2013-07-11 08:15:00,77.0,75.1,29.98,NW,324,0.0,0.0,94,0.00,,---,0.00,VWS V14.00,2013-07-11 12:15:00,
2013-07-11 08:20:00,77.2,75.0,29.97,NW,324,1.0,1.0,93,0.00,,---,0.00,VWS V14.00,2013-07-11 12:20:00,
2013-07-11 08:25:00,77.4,75.2,29.98,WSW,249,0.0,0.0,93,0.00,,---,0.00,VWS V14.00,2013-07-11 12:25:00,
2013-07-11 08:30:00,77.7,75.5,29.98,West,276,0.0,0.0,93,0.00,,---,0.00,VWS V14.00,2013-07-11 12:30:00,
2013-07-11 08:35:00,78.0,75.5,29.98,West,276,0.0,0.0,92,0.00,,---,0.00,VWS V14.00,2013-07-11 12:35:00,
2013-07-11 08:40:00,78.3,75.5,29.98,SW,227,0.0,0.0,91,0.00,,---,0.00,VWS V14.00,2013-07-11 12:40:00,
2013-07-11 08:45:00,78.6,75.4,29.98,West,259,0.0,0.0,90,0.00,,---,0.00,VWS V14.00,2013-07-11 12:45:00,
2013-07-11 08:50:00,78.9,75.4,29.98,WNW,285,0.0,1.0,89,0.00,,---,0.00,VWS V14.00,2013-07-11 12:50:00,
2013-07-11 08:55:00,79.2,75.3,29.98,SSE,161,1.0,5.0,88,0.00,,---,0.00,VWS V14.00,2013-07-11 12:55:00,
2013-07-11 09:00:00,79.4,75.2,29.98,WNW,298,2.0,2.0,87,0.00,,---,0.00,VWS V14.00,2013-07-11 13:00:00,
2013-07-11 09:06:00,79.7,75.5,29.98,WNW,296,0.0,1.0,87,0.00,,---,0.00,VWS V14.00,2013-07-11 13:06:00,
2013-07-11 09:11:00,79.9,75.3,29.98,WNW,299,0.0,4.0,86,0.00,,---,0.00,VWS V14.00,2013-07-11 13:11:00,
2013-07-11 09:16:00,80.2,76.0,29.98,WNW,299,0.0,0.0,87,0.00,,---,0.00,VWS V14.00,2013-07-11 13:16:00,
2013-07-11 09:21:00,80.5,76.3,29.98,WNW,298,2.0,2.0,87,0.00,,---,0.00,VWS V14.00,2013-07-11 13:21:00,
2013-07-11 09:26:00,80.7,75.8,29.98,NW,308,1.0,1.0,85,0.00,,---,0.00,VWS V14.00,2013-07-11 13:26:00,
2013-07-11 09:31:00,80.9,76.0,29.98,NW,318,0.0,2.0,85,0.00,,---,0.00,VWS V14.00,2013-07-11 13:31:00,
2013-07-11 09:36:00,81.1,75.4,29.98,NW,305,0.0,1.0,83,0.00,,---,0.00,VWS V14.00,2013-07-11 13:36:00,
2013-07-11 09:41:00,81.2,75.6,29.98,WNW,288,0.0,1.0,83,0.00,,---,0.00,VWS V14.00,2013-07-11 13:41:00,
2013-07-11 09:46:00,81.3,75.3,29.98,NW,315,0.0,1.0,82,0.00,,---,0.00,VWS V14.00,2013-07-11 13:46:00,
2013-07-11 09:51:00,81.5,75.5,29.98,NW,324,4.0,4.0,82,0.00,,---,0.00,VWS V14.00,2013-07-11 13:51:00,
2013-07-11 09:56:00,81.7,75.7,29.98,NW,309,0.0,4.0,82,0.00,,---,0.00,VWS V14.00,2013-07-11 13:56:00,
2013-07-11 10:01:00,81.9,75.9,29.98,West,268,0.0,2.0,82,0.00,,---,0.00,VWS V14.00,2013-07-11 14:01:00,
2013-07-11 10:06:00,82.0,74.5,29.98,NW,313,2.0,6.0,78,0.00,,---,0.00,VWS V14.00,2013-07-11 14:06:00,
2013-07-11 10:11:00,82.2,75.0,29.98,SW,236,0.0,1.0,79,0.00,,---,0.00,VWS V14.00,2013-07-11 14:11:00,
2013-07-11 10:16:00,82.4,74.9,29.98,NNW,338,0.0,0.0,78,0.00,,---,0.00,VWS V14.00,2013-07-11 14:16:00,
2013-07-11 10:21:00,82.7,75.9,29.98,NNW,339,4.0,4.0,80,0.00,,---,0.00,VWS V14.00,2013-07-11 14:21:00,
2013-07-11 10:26:00,83.0,75.8,29.98,SSW,212,1.0,3.0,79,0.00,,---,0.00,VWS V14.00,2013-07-11 14:26:00,
2013-07-11 10:31:00,83.3,75.7,29.98,WNW,296,0.0,0.0,78,0.00,,---,0.00,VWS V14.00,2013-07-11 14:31:00,
2013-07-11 10:36:00,83.6,75.6,29.98,NW,311,0.0,1.0,77,0.00,,---,0.00,VWS V14.00,2013-07-11 14:36:00,
2013-07-11 10:41:00,83.8,75.4,29.98,West,281,0.0,0.0,76,0.00,,---,0.00,VWS V14.00,2013-07-11 14:41:00,
2013-07-11 10:46:00,83.9,75.1,29.97,NW,315,0.0,1.0,75,0.00,,---,0.00,VWS V14.00,2013-07-11 14:46:00,
2013-07-11 10:51:00,84.1,76.1,29.97,SW,226,0.0,1.0,77,0.00,,---,0.00,VWS V14.00,2013-07-11 14:51:00,
2013-07-11 10:56:00,84.3,75.5,29.98,NW,306,0.0,2.0,75,0.00,,---,0.00,VWS V14.00,2013-07-11 14:56:00,
2013-07-11 11:02:00,84.3,75.5,29.98,NW,307,1.0,1.0,75,0.00,,---,0.00,VWS V14.00,2013-07-11 15:02:00,
2013-07-11 11:07:00,84.3,76.7,29.98,WNW,292,0.0,12.0,78,0.00,,---,0.00,VWS V14.00,2013-07-11 15:07:00,
2013-07-11 11:12:00,84.0,76.4,29.98,WNW,287,0.0,4.0,78,0.00,,---,0.00,VWS V14.00,2013-07-11 15:12:00,
2013-07-11 11:17:00,83.4,75.8,29.98,WNW,288,0.0,4.0,78,0.00,,---,0.00,VWS V14.00,2013-07-11 15:17:00,
2013-07-11 11:22:00,82.8,76.0,29.98,NW,312,4.0,4.0,80,0.00,,---,0.00,VWS V14.00,2013-07-11 15:22:00,
2013-07-11 11:27:00,82.2,75.4,29.98,NW,305,0.0,1.0,80,0.00,,---,0.00,VWS V14.00,2013-07-11 15:27:00,
2013-07-11 11:32:00,81.6,74.1,29.98,West,280,2.0,4.0,78,0.00,,---,0.00,VWS V14.00,2013-07-11 15:32:00,
2013-07-11 11:37:00,81.4,73.9,29.98,NW,315,0.0,5.0,78,0.00,,---,0.00,VWS V14.00,2013-07-11 15:37:00,
2013-07-11 11:42:00,81.5,75.1,29.98,NW,315,1.0,4.0,81,0.00,,---,0.00,VWS V14.00,2013-07-11 15:42:00,
2013-07-11 11:47:00,81.6,74.1,29.98,NW,316,0.0,4.0,78,0.00,,---,0.00,VWS V14.00,2013-07-11 15:47:00,
2013-07-11 11:52:00,81.9,74.4,29.98,West,279,0.0,0.0,78,0.00,,---,0.00,VWS V14.00,2013-07-11 15:52:00,
2013-07-11 11:57:00,82.4,75.2,29.97,NNW,340,0.0,1.0,79,0.00,,---,0.00,VWS V14.00,2013-07-11 15:57:00,
2013-07-11 12:02:00,82.8,75.2,29.97,West,263,0.0,1.0,78,0.00,,---,0.00,VWS V14.00,2013-07-11 16:02:00,
2013-07-11 12:07:00,83.2,75.2,29.97,WSW,254,1.0,1.0,77,0.00,,---,0.00,VWS V14.00,2013-07-11 16:07:00,
2013-07-11 12:12:00,83.6,75.2,29.97,NNW,335,0.0,0.0,76,0.00,,---,0.00,VWS V14.00,2013-07-11 16:12:00,
2013-07-11 12:17:00,84.0,75.2,29.97,NW,324,2.0,2.0,75,0.00,,---,0.00,VWS V14.00,2013-07-11 16:17:00,
2013-07-11 12:22:00,84.5,76.1,29.97,NNW,327,0.0,0.0,76,0.00,,---,0.00,VWS V14.00,2013-07-11 16:22:00,
2013-07-11 12:27:00,84.9,75.7,29.96,NW,317,0.0,0.0,74,0.00,,---,0.00,VWS V14.00,2013-07-11 16:27:00,
2013-07-11 12:33:00,85.3,76.9,29.96,NW,325,0.0,0.0,76,0.00,,---,0.00,VWS V14.00,2013-07-11 16:33:00,
2013-07-11 12:38:00,85.7,77.3,29.97,West,264,2.0,2.0,76,0.00,,---,0.00,VWS V14.00,2013-07-11 16:38:00,
2013-07-11 12:43:00,86.0,77.2,29.96,West,260,0.0,0.0,75,0.00,,---,0.00,VWS V14.00,2013-07-11 16:43:00,
2013-07-11 12:48:00,86.2,77.3,29.96,WNW,291,0.0,1.0,75,0.00,,---,0.00,VWS V14.00,2013-07-11 16:48:00,
2013-07-11 12:53:00,86.4,77.5,29.96,West,273,1.0,2.0,75,0.00,,---,0.00,VWS V14.00,2013-07-11 16:53:00,
2013-07-11 12:58:00,86.7,77.8,29.96,West,281,0.0,0.0,75,0.00,,---,0.00,VWS V14.00,2013-07-11 16:58:00,
2013-07-11 13:03:00,86.9,77.2,29.96,WNW,289,0.0,0.0,73,0.00,,---,0.00,VWS V14.00,2013-07-11 17:03:00,
2013-07-11 13:08:00,87.1,77.4,29.96,NW,315,0.0,2.0,73,0.00,,---,0.00,VWS V14.00,2013-07-11 17:08:00,
2013-07-11 13:13:00,87.3,78.0,29.96,NW,325,1.0,1.0,74,0.00,,---,0.00,VWS V14.00,2013-07-11 17:13:00,
2013-07-11 13:19:00,87.6,78.7,29.96,WNW,301,0.0,0.0,75,0.00,,---,0.00,VWS V14.00,2013-07-11 17:19:00,
2013-07-11 13:24:00,87.9,79.0,29.96,WSW,255,0.0,1.0,75,0.00,,---,0.00,VWS V14.00,2013-07-11 17:24:00,
2013-07-11 13:29:00,88.3,78.6,29.96,SW,220,0.0,0.0,73,0.00,,---,0.00,VWS V14.00,2013-07-11 17:29:00,
2013-07-11 13:34:00,88.4,78.7,29.95,SW,222,0.0,2.0,73,0.00,,---,0.00,VWS V14.00,2013-07-11 17:34:00,
2013-07-11 13:39:00,88.7,78.9,29.95,NNW,327,0.0,0.0,73,0.00,,---,0.00,VWS V14.00,2013-07-11 17:39:00,
2013-07-11 13:44:00,89.2,79.4,29.95,West,279,0.0,1.0,73,0.00,,---,0.00,VWS V14.00,2013-07-11 17:44:00,
2013-07-11 13:49:00,89.5,77.6,29.94,NW,311,0.0,1.0,68,0.00,,---,0.00,VWS V14.00,2013-07-11 17:49:00,
2013-07-11 13:54:00,90.0,78.9,29.95,SW,225,0.0,0.0,70,0.00,,---,0.00,VWS V14.00,2013-07-11 17:54:00,
2013-07-11 13:59:00,90.3,79.2,29.94,North,5,0.0,1.0,70,0.00,,---,0.00,VWS V14.00,2013-07-11 17:59:00,
2013-07-11 14:04:00,90.5,78.5,29.94,SW,219,0.0,0.0,68,0.00,,---,0.00,VWS V14.00,2013-07-11 18:04:00,
2013-07-11 14:09:00,90.6,79.0,29.94,WSW,254,0.0,0.0,69,0.00,,---,0.00,VWS V14.00,2013-07-11 18:09:00,
2013-07-11 14:14:00,90.6,79.0,29.94,NNE,17,0.0,2.0,69,0.00,,---,0.00,VWS V14.00,2013-07-11 18:14:00,
2013-07-11 14:19:00,90.8,80.1,29.94,North,5,0.0,0.0,71,0.00,,---,0.00,VWS V14.00,2013-07-11 18:19:00,
2013-07-11 14:24:00,90.9,79.8,29.94,WSW,244,0.0,0.0,70,0.00,,---,0.00,VWS V14.00,2013-07-11 18:24:00,
2013-07-11 14:29:00,91.1,79.9,29.94,WSW,238,0.0,0.0,70,0.00,,---,0.00,VWS V14.00,2013-07-11 18:29:00,
2013-07-11 14:34:00,91.1,79.1,29.94,WSW,238,0.0,0.0,68,0.00,,---,0.00,VWS V14.00,2013-07-11 18:34:00,
2013-07-11 14:39:00,91.3,79.7,29.93,ENE,62,0.0,0.0,69,0.00,,---,0.00,VWS V14.00,2013-07-11 18:39:00,
2013-07-11 14:44:00,91.5,79.4,29.93,West,281,0.0,2.0,68,0.00,,---,0.00,VWS V14.00,2013-07-11 18:44:00,
2013-07-11 14:50:00,91.7,79.6,29.93,WSW,243,1.0,3.0,68,0.00,,---,0.00,VWS V14.00,2013-07-11 18:50:00,
2013-07-11 14:55:00,91.8,80.2,29.93,WSW,247,0.0,3.0,69,0.00,,---,0.00,VWS V14.00,2013-07-11 18:55:00,
2013-07-11 15:00:00,91.9,80.3,29.93,WSW,247,1.0,1.0,69,0.00,,---,0.00,VWS V14.00,2013-07-11 19:00:00,
2013-07-11 15:05:00,92.0,79.9,29.92,SW,225,0.0,0.0,68,0.00,,---,0.00,VWS V14.00,2013-07-11 19:05:00,
2013-07-11 15:10:00,92.0,79.9,29.92,West,263,0.0,2.0,68,0.00,,---,0.00,VWS V14.00,2013-07-11 19:10:00,
2013-07-11 15:16:00,91.9,79.8,29.91,NW,305,0.0,0.0,68,0.00,,---,0.00,VWS V14.00,2013-07-11 19:16:00,
2013-07-11 15:21:00,91.9,80.3,29.91,WNW,294,1.0,1.0,69,0.00,,---,0.00,VWS V14.00,2013-07-11 19:21:00,
2013-07-11 15:26:00,91.8,79.3,29.91,West,277,0.0,1.0,67,0.00,,---,0.00,VWS V14.00,2013-07-11 19:26:00,
2013-07-11 15:31:00,91.8,79.3,29.91,West,266,0.0,1.0,67,0.00,,---,0.00,VWS V14.00,2013-07-11 19:31:00,
2013-07-11 15:36:00,91.8,79.3,29.91,SW,219,0.0,6.0,67,0.00,,---,0.00,VWS V14.00,2013-07-11 19:36:00,
2013-07-11 15:41:00,91.8,79.3,29.92,WSW,238,0.0,1.0,67,0.00,,---,0.00,VWS V14.00,2013-07-11 19:41:00,
2013-07-11 15:46:00,91.8,79.3,29.92,West,269,6.0,6.0,67,0.00,,---,0.00,VWS V14.00,2013-07-11 19:46:00,
2013-07-11 15:51:00,91.7,79.6,29.92,SSW,211,0.0,2.0,68,0.00,,---,0.00,VWS V14.00,2013-07-11 19:51:00,
2013-07-11 15:56:00,91.5,79.0,29.91,SW,228,0.0,2.0,67,0.00,,---,0.00,VWS V14.00,2013-07-11 19:56:00,
2013-07-11 16:01:00,91.5,79.0,29.91,West,272,2.0,2.0,67,0.00,,---,0.00,VWS V14.00,2013-07-11 20:01:00,
2013-07-11 16:06:00,91.3,78.8,29.91,WSW,254,0.0,1.0,67,0.00,,---,0.00,VWS V14.00,2013-07-11 20:06:00,
2013-07-11 16:11:00,91.2,79.2,29.91,NW,312,0.0,0.0,68,0.00,,---,0.00,VWS V14.00,2013-07-11 20:11:00,
2013-07-11 16:16:00,90.9,78.4,29.91,NNE,13,0.0,0.0,67,0.00,,---,0.00,VWS V14.00,2013-07-11 20:16:00,
2013-07-11 16:21:00,90.7,78.7,29.90,NNW,327,1.0,1.0,68,0.00,,---,0.00,VWS V14.00,2013-07-11 20:21:00,
2013-07-11 16:26:00,90.6,79.0,29.91,NNW,338,0.0,0.0,69,0.00,,---,0.00,VWS V14.00,2013-07-11 20:26:00,
2013-07-11 16:31:00,90.5,79.4,29.91,NE,50,0.0,1.0,70,0.00,,---,0.00,VWS V14.00,2013-07-11 20:31:00,
2013-07-11 16:36:00,90.4,79.3,29.90,ENE,65,0.0,1.0,70,0.00,,---,0.00,VWS V14.00,2013-07-11 20:36:00,
2013-07-11 16:42:00,90.2,78.7,29.91,SW,227,0.0,0.0,69,0.00,,---,0.00,VWS V14.00,2013-07-11 20:42:00,
2013-07-11 16:47:00,89.7,77.7,29.91,NW,305,0.0,0.0,68,0.00,,---,0.00,VWS V14.00,2013-07-11 20:47:00,
2013-07-11 16:52:00,89.1,77.6,29.91,West,262,0.0,0.0,69,0.00,,---,0.00,VWS V14.00,2013-07-11 20:52:00,
2013-07-11 16:57:00,88.5,77.9,29.90,West,259,0.0,0.0,71,0.00,,---,0.00,VWS V14.00,2013-07-11 20:57:00,
2013-07-11 17:02:00,88.1,77.9,29.91,WSW,258,0.0,1.0,72,0.00,,---,0.00,VWS V14.00,2013-07-11 21:02:00,
2013-07-11 17:07:00,87.5,77.4,29.90,WNW,296,1.0,1.0,72,0.00,,---,0.00,VWS V14.00,2013-07-11 21:07:00,
2013-07-11 17:12:00,87.0,77.7,29.90,WNW,283,0.0,0.0,74,0.00,,---,0.00,VWS V14.00,2013-07-11 21:12:00,
2013-07-11 17:17:00,86.5,77.2,29.90,SW,236,0.0,1.0,74,0.00,,---,0.00,VWS V14.00,2013-07-11 21:17:00,
2013-07-11 17:22:00,86.0,77.2,29.90,SW,219,0.0,0.0,75,0.00,,---,0.00,VWS V14.00,2013-07-11 21:22:00,
2013-07-11 17:27:00,85.6,77.2,29.89,West,277,0.0,1.0,76,0.00,,---,0.00,VWS V14.00,2013-07-11 21:27:00,
2013-07-11 17:32:00,85.3,77.3,29.90,West,275,0.0,1.0,77,0.00,,---,0.00,VWS V14.00,2013-07-11 21:32:00,
2013-07-11 17:37:00,85.0,77.0,29.89,WNW,292,0.0,7.0,77,0.00,,---,0.00,VWS V14.00,2013-07-11 21:37:00,
2013-07-11 17:42:00,84.8,77.2,29.89,WNW,292,0.0,0.0,78,0.00,,---,0.00,VWS V14.00,2013-07-11 21:42:00,
2013-07-11 17:47:00,84.5,76.9,29.89,WNW,297,0.0,0.0,78,0.00,,---,0.00,VWS V14.00,2013-07-11 21:47:00,
2013-07-11 17:52:00,84.4,77.2,29.89,SW,229,0.0,1.0,79,0.00,,---,0.00,VWS V14.00,2013-07-11 21:52:00,
2013-07-11 17:57:00,84.3,77.1,29.89,NW,314,0.0,1.0,79,0.00,,---,0.00,VWS V14.00,2013-07-11 21:57:00,
2013-07-11 18:02:00,84.2,77.0,29.89,NW,322,0.0,1.0,79,0.00,,---,0.00,VWS V14.00,2013-07-11 22:02:00,
2013-07-11 18:07:00,84.1,76.9,29.89,NNW,331,0.0,1.0,79,0.00,,---,0.00,VWS V14.00,2013-07-11 22:07:00,
2013-07-11 18:12:00,84.1,76.9,29.89,NNW,328,0.0,1.0,79,0.00,,---,0.00,VWS V14.00,2013-07-11 22:12:00,
2013-07-11 18:17:00,84.2,77.0,29.88,WSW,240,0.0,0.0,79,0.00,,---,0.00,VWS V14.00,2013-07-11 22:17:00,
2013-07-11 18:22:00,84.3,77.8,29.89,WSW,240,0.0,1.0,81,0.00,,---,0.00,VWS V14.00,2013-07-11 22:22:00,
2013-07-11 18:27:00,84.5,77.7,29.88,SW,227,0.0,0.0,80,0.00,,---,0.00,VWS V14.00,2013-07-11 22:27:00,
2013-07-11 18:32:00,84.7,77.8,29.89,SW,227,0.0,1.0,80,0.00,,---,0.00,VWS V14.00,2013-07-11 22:32:00,
2013-07-11 18:37:00,84.9,77.7,29.89,SW,229,1.0,1.0,79,0.00,,---,0.00,VWS V14.00,2013-07-11 22:37:00,
2013-07-11 18:42:00,85.2,77.2,29.88,NW,317,5.0,5.0,77,0.00,,---,0.00,VWS V14.00,2013-07-11 22:42:00,
2013-07-11 18:47:00,85.4,77.4,29.89,NW,325,0.0,0.0,77,0.00,,---,0.00,VWS V14.00,2013-07-11 22:47:00,
2013-07-11 18:52:00,85.4,77.4,29.89,NW,322,0.0,0.0,77,0.00,,---,0.00,VWS V14.00,2013-07-11 22:52:00,
2013-07-11 18:57:00,85.5,77.1,29.89,WNW,291,0.0,1.0,76,0.00,,---,0.00,VWS V14.00,2013-07-11 22:57:00,
2013-07-11 19:02:00,85.6,77.2,29.89,ENE,58,0.0,1.0,76,0.00,,---,0.00,VWS V14.00,2013-07-11 23:02:00,
2013-07-11 19:07:00,85.6,76.8,29.89,ENE,59,0.0,1.0,75,0.00,,---,0.00,VWS V14.00,2013-07-11 23:07:00,
2013-07-11 19:12:00,85.5,76.3,29.89,West,261,0.0,0.0,74,0.00,,---,0.00,VWS V14.00,2013-07-11 23:12:00,
2013-07-11 19:17:00,85.5,76.7,29.89,West,260,0.0,1.0,75,0.00,,---,0.00,VWS V14.00,2013-07-11 23:17:00,
2013-07-11 19:22:00,85.3,76.5,29.89,West,275,1.0,4.0,75,0.00,,---,0.00,VWS V14.00,2013-07-11 23:22:00,
2013-07-11 19:28:00,85.0,76.6,29.89,West,279,0.0,0.0,76,0.00,,---,0.00,VWS V14.00,2013-07-11 23:28:00,
2013-07-11 19:33:00,84.8,76.8,29.89,West,279,0.0,0.0,77,0.00,,---,0.00,VWS V14.00,2013-07-11 23:33:00,
2013-07-11 19:38:00,84.5,76.5,29.89,SSW,206,3.0,3.0,77,0.00,,---,0.00,VWS V14.00,2013-07-11 23:38:00,
2013-07-11 19:43:00,84.1,75.7,29.90,West,272,0.0,0.0,76,0.00,,---,0.00,VWS V14.00,2013-07-11 23:43:00,
2013-07-11 19:48:00,83.9,76.3,29.89,West,278,0.0,1.0,78,0.00,,---,0.00,VWS V14.00,2013-07-11 23:48:00,
2013-07-11 19:53:00,83.6,76.0,29.89,West,279,0.0,0.0,78,0.00,,---,0.00,VWS V14.00,2013-07-11 23:53:00,
2013-07-11 19:58:00,83.2,76.0,29.89,NW,317,0.0,0.0,79,0.00,,---,0.00,VWS V14.00,2013-07-11 23:58:00,
2013-07-11 20:03:00,82.9,75.7,29.89,NW,313,0.0,1.0,79,0.00,,---,0.00,VWS V14.00,2013-07-12 00:03:00,
2013-07-11 20:08:00,82.7,75.9,29.89,NW,311,0.0,0.0,80,0.00,,---,0.00,VWS V14.00,2013-07-12 00:08:00,
2013-07-11 20:13:00,82.5,76.1,29.89,WNW,289,0.0,0.0,81,0.00,,---,0.00,VWS V14.00,2013-07-12 00:13:00,
2013-07-11 20:19:00,82.3,75.9,29.89,WNW,289,0.0,0.0,81,0.00,,---,0.00,VWS V14.00,2013-07-12 00:19:00,
2013-07-11 20:24:00,82.1,75.7,29.88,WNW,289,0.0,0.0,81,0.00,,---,0.00,VWS V14.00,2013-07-12 00:24:00,
2013-07-11 20:28:00,81.9,75.9,29.89,WNW,290,0.0,0.0,82,0.00,,---,0.00,VWS V14.00,2013-07-12 00:28:00,
2013-07-11 20:33:00,81.8,75.8,29.89,WNW,290,0.0,0.0,82,0.00,,---,0.00,VWS V14.00,2013-07-12 00:33:00,
2013-07-11 20:39:00,81.6,75.6,29.89,WNW,290,0.0,1.0,82,0.00,,---,0.00,VWS V14.00,2013-07-12 00:39:00,
2013-07-11 20:43:00,81.5,75.5,29.89,WNW,290,0.0,0.0,82,0.00,,---,0.00,VWS V14.00,2013-07-12 00:43:00,
2013-07-11 20:48:00,81.3,75.7,29.89,WNW,290,0.0,0.0,83,0.00,,---,0.00,VWS V14.00,2013-07-12 00:48:00,
2013-07-11 20:54:00,81.2,75.6,29.89,WNW,301,0.0,0.0,83,0.00,,---,0.00,VWS V14.00,2013-07-12 00:54:00,
2013-07-11 20:59:00,81.0,75.3,29.90,WNW,301,0.0,0.0,83,0.00,,---,0.00,VWS V14.00,2013-07-12 00:59:00,
2013-07-11 21:04:00,80.9,75.6,29.90,WNW,288,0.0,2.0,84,0.00,,---,0.00,VWS V14.00,2013-07-12 01:04:00,
2013-07-11 21:09:00,80.8,75.5,29.90,WNW,288,0.0,1.0,84,0.00,,---,0.00,VWS V14.00,2013-07-12 01:09:00,
2013-07-11 21:14:00,80.7,75.4,29.90,WNW,288,0.0,0.0,84,0.00,,---,0.00,VWS V14.00,2013-07-12 01:14:00,
2013-07-11 21:19:00,80.6,75.7,29.91,SSW,209,0.0,3.0,85,0.00,,---,0.00,VWS V14.00,2013-07-12 01:19:00,
2013-07-11 21:24:00,80.5,75.6,29.91,WNW,300,0.0,1.0,85,0.00,,---,0.00,VWS V14.00,2013-07-12 01:24:00,
2013-07-11 21:29:00,80.4,75.5,29.91,WNW,302,0.0,0.0,85,0.00,,---,0.00,VWS V14.00,2013-07-12 01:29:00,
2013-07-11 21:34:00,80.4,75.5,29.92,WNW,302,0.0,0.0,85,0.00,,---,0.00,VWS V14.00,2013-07-12 01:34:00,
2013-07-11 21:39:00,80.3,75.4,29.91,NW,311,0.0,1.0,85,0.00,,---,0.00,VWS V14.00,2013-07-12 01:39:00,
2013-07-11 21:44:00,80.3,75.4,29.91,NW,311,0.0,2.0,85,0.00,,---,0.00,VWS V14.00,2013-07-12 01:44:00,
2013-07-11 21:49:00,80.3,75.4,29.91,NNW,327,0.0,0.0,85,0.00,,---,0.00,VWS V14.00,2013-07-12 01:49:00,
2013-07-11 21:54:00,80.3,75.7,29.91,NNW,327,0.0,0.0,86,0.00,,---,0.00,VWS V14.00,2013-07-12 01:54:00,
2013-07-11 21:59:00,80.3,75.7,29.91,NNW,343,0.0,0.0,86,0.00,,---,0.00,VWS V14.00,2013-07-12 01:59:00,
2013-07-11 22:04:00,80.3,75.7,29.91,SW,229,0.0,4.0,86,0.00,,---,0.00,VWS V14.00,2013-07-12 02:04:00,
2013-07-11 22:09:00,80.3,75.7,29.91,SW,232,0.0,0.0,86,0.00,,---,0.00,VWS V14.00,2013-07-12 02:09:00,
2013-07-11 22:14:00,80.2,75.3,29.91,NW,325,0.0,4.0,85,0.00,,---,0.00,VWS V14.00,2013-07-12 02:14:00,
2013-07-11 22:19:00,80.2,75.3,29.92,SW,233,1.0,1.0,85,0.00,,---,0.00,VWS V14.00,2013-07-12 02:19:00,
2013-07-11 22:24:00,80.2,75.3,29.91,SW,235,0.0,0.0,85,0.00,,---,0.00,VWS V14.00,2013-07-12 02:24:00,
2013-07-11 22:29:00,80.2,75.3,29.91,WSW,248,0.0,0.0,85,0.00,,---,0.00,VWS V14.00,2013-07-12 02:29:00,
2013-07-11 22:34:00,80.3,75.4,29.92,WSW,248,0.0,0.0,85,0.00,,---,0.00,VWS V14.00,2013-07-12 02:34:00,
2013-07-11 22:40:00,80.3,75.4,29.91,NNW,330,0.0,5.0,85,0.00,,---,0.00,VWS V14.00,2013-07-12 02:40:00,
2013-07-11 22:45:00,80.2,75.3,29.91,NNW,329,0.0,0.0,85,0.00,,---,0.00,VWS V14.00,2013-07-12 02:45:00,
2013-07-11 22:50:00,80.3,75.4,29.91,NW,315,0.0,2.0,85,0.00,,---,0.00,VWS V14.00,2013-07-12 02:50:00,
2013-07-11 22:55:00,80.3,75.4,29.91,NW,315,0.0,1.0,85,0.00,,---,0.00,VWS V14.00,2013-07-12 02:55:00,
2013-07-11 23:00:00,80.3,75.4,29.91,West,265,0.0,1.0,85,0.00,,---,0.00,VWS V14.00,2013-07-12 03:00:00,
2013-07-11 23:05:00,80.3,75.4,29.91,NW,307,0.0,1.0,85,0.00,,---,0.00,VWS V14.00,2013-07-12 03:05:00,
2013-07-11 23:10:00,80.4,75.5,29.91,SSW,194,0.0,4.0,85,0.00,,---,0.00,VWS V14.00,2013-07-12 03:10:00,
2013-07-11 23:15:00,80.4,75.5,29.91,WNW,286,0.0,1.0,85,0.00,,---,0.00,VWS V14.00,2013-07-12 03:15:00,
2013-07-11 23:20:00,80.5,75.6,29.91,SW,215,0.0,0.0,85,0.00,,---,0.00,VWS V14.00,2013-07-12 03:20:00,
2013-07-11 23:25:00,80.5,75.6,29.91,NW,305,0.0,1.0,85,0.00,,---,0.00,VWS V14.00,2013-07-12 03:25:00,
2013-07-11 23:30:00,80.5,75.6,29.91,West,268,0.0,2.0,85,0.00,,---,0.00,VWS V14.00,2013-07-12 03:30:00,
2013-07-11 23:35:00,80.6,75.7,29.92,WNW,294,0.0,0.0,85,0.00,,---,0.00,VWS V14.00,2013-07-12 03:35:00,
2013-07-11 23:40:00,80.6,75.7,29.92,NW,309,1.0,1.0,85,0.00,,---,0.00,VWS V14.00,2013-07-12 03:40:00,
2013-07-11 23:45:00,80.6,75.7,29.91,NW,309,0.0,1.0,85,0.00,,---,0.00,VWS V14.00,2013-07-12 03:45:00,
2013-07-11 23:50:00,80.6,75.7,29.91,SW,232,0.0,1.0,85,0.00,,---,0.00,VWS V14.00,2013-07-12 03:50:00,
2013-07-11 23:55:00,80.6,75.7,29.91,WSW,246,0.0,0.0,85,0.00,,---,0.00,VWS V14.00,2013-07-12 03:55:00,